| time (UTC) | temp F | wind direction | speed MPH | gust MPH | rain 1hr in | rain 24hr in | rain mn in | humidity % | barometer mb |
| 20260505171031 | 78 | 191 | 4.0 | 9.0 | 0.00 | 0.00 | 0.00 | 52 | 1016.4 |
| 20260505170527 | 78 | 221 | 5.0 | 10.0 | 0.00 | 0.00 | 0.00 | 51 | 1016.1 |
| 20260505170024 | 78 | 235 | 7.0 | 10.0 | 0.00 | 0.00 | 0.00 | 50 | 1016.3 |
| 20260505165519 | 77 | 241 | 7.0 | 10.0 | 0.00 | 0.00 | 0.00 | 52 | 1016.4 |
| 20260505165015 | 77 | 173 | 9.0 | 14.0 | 0.00 | 0.00 | 0.00 | 52 | 1016.5 |
| 20260505164511 | 77 | 137 | 5.0 | 10.0 | 0.00 | 0.00 | 0.00 | 53 | 1016.5 |
| 20260505164009 | 77 | 215 | 5.0 | 7.0 | 0.00 | 0.00 | 0.00 | 53 | 1016.5 |
| 20260505163507 | 77 | 152 | 6.0 | 8.0 | 0.00 | 0.00 | 0.00 | 54 | 1016.4 |
| 20260505163003 | 77 | 136 | 7.0 | 10.0 | 0.00 | 0.00 | 0.00 | 54 | 1016.3 |
| 20260505162457 | 77 | 199 | 7.0 | 14.0 | 0.00 | 0.00 | 0.00 | 53 | 1016.5 |
| 20260505161954 | 76 | 160 | 8.0 | 15.0 | 0.00 | 0.00 | 0.00 | 54 | 1016.5 |
| 20260505161450 | 76 | 141 | 4.0 | 9.0 | 0.00 | 0.00 | 0.00 | 54 | 1016.5 |
| 20260505160948 | 75 | 201 | 3.0 | 8.0 | 0.00 | 0.00 | 0.00 | 55 | 1016.8 |
| 20260505160446 | 75 | 173 | 5.0 | 9.0 | 0.00 | 0.00 | 0.00 | 56 | 1017.0 |
| 20260505152922 | 74 | 193 | 4.0 | 4.0 | 0.00 | 0.00 | 0.00 | 61 | 1017.0 |
| 20260505152420 | 74 | 185 | 4.0 | 7.0 | 0.00 | 0.00 | 0.00 | 61 | 1017.1 |
| 20260505151919 | 74 | 190 | 4.0 | 8.0 | 0.00 | 0.00 | 0.00 | 61 | 1017.3 |
| 20260505151416 | 73 | 199 | 5.0 | 7.0 | 0.00 | 0.00 | 0.00 | 62 | 1017.1 |
| 20260505150914 | 74 | 203 | 6.0 | 13.0 | 0.00 | 0.00 | 0.00 | 61 | 1017.1 |
| 20260505150411 | 72 | 190 | 4.0 | 7.0 | 0.00 | 0.00 | 0.00 | 63 | 1017.2 |
| 20260505140340 | 69 | 171 | 4.0 | 11.0 | 0.00 | 0.00 | 0.00 | 68 | 1017.3 |
| 20260505130304 | 66 | 175 | 3.0 | 8.0 | 0.00 | 0.00 | 0.00 | 74 | 1017.2 |
| 20260505124754 | 65 | 199 | 5.0 | 6.0 | 0.00 | 0.00 | 0.00 | 77 | 1017.2 |
| 20260505124251 | 64 | 224 | 3.0 | 7.0 | 0.00 | 0.00 | 0.00 | 78 | 1017.1 |
| 20260505123746 | 64 | 214 | 4.0 | 6.0 | 0.00 | 0.00 | 0.00 | 78 | 1017.0 |
| 20260505123243 | 63 | 142 | 4.0 | 4.0 | 0.00 | 0.00 | 0.00 | 79 | 1017.2 |
| 20260505122740 | 63 | 183 | 4.0 | 4.0 | 0.00 | 0.00 | 0.00 | 81 | 1017.0 |
| 20260505122237 | 62 | 195 | 2.0 | 3.0 | 0.00 | 0.00 | 0.00 | 82 | 1017.0 |
| 20260505121734 | 61 | 201 | 4.0 | 8.0 | 0.00 | 0.00 | 0.00 | 83 | 1017.2 |
| 20260505121230 | 60 | 154 | 4.0 | 6.0 | 0.00 | 0.00 | 0.00 | 85 | 1017.0 |
| 20260505120727 | 59 | 143 | 2.0 | 3.0 | 0.00 | 0.00 | 0.00 | 85 | 1017.0 |
| 20260505120223 | 58 | 183 | 2.0 | 3.0 | 0.00 | 0.00 | 0.00 | 86 | 1017.0 |
| 20260505115721 | 58 | 182 | 2.0 | 3.0 | 0.00 | 0.00 | 0.00 | 87 | 1016.9 |
| 20260505115219 | 57 | 132 | 1.0 | 1.0 | 0.00 | 0.00 | 0.00 | 87 | 1017.0 |
| 20260505114717 | 57 | 136 | 0.0 | 2.0 | 0.00 | 0.00 | 0.00 | 88 | 1016.9 |
| 20260505114212 | 56 | 135 | 1.0 | 3.0 | 0.00 | 0.00 | 0.00 | 89 | 1016.8 |
| 20260505113709 | 56 | 121 | 1.0 | 2.0 | 0.00 | 0.00 | 0.00 | 89 | 1016.8 |
| 20260505113206 | 55 | 137 | 0.0 | 1.0 | 0.00 | 0.00 | 0.00 | 90 | 1016.7 |
| 20260505112702 | 55 | 134 | 1.0 | 1.0 | 0.00 | 0.00 | 0.00 | 90 | 1016.7 |
| 20260505112200 | 54 | 133 | 0.0 | 2.0 | 0.00 | 0.00 | 0.00 | 90 | 1016.6 |
| 20260505111659 | 53 | 132 | 0.0 | 0.0 | 0.00 | 0.00 | 0.00 | 90 | 1016.8 |
| 20260505111155 | 52 | 135 | 0.0 | 0.0 | 0.00 | 0.00 | 0.00 | 90 | 1016.6 |
| 20260505110652 | 52 | 125 | 0.0 | 0.0 | 0.00 | 0.00 | 0.00 | 90 | 1016.6 |
| 20260505110149 | 51 | 128 | 0.0 | 0.0 | 0.00 | 0.00 | 0.00 | 89 | 1016.6 |
| 20260505102125 | 52 | 119 | 0.0 | 0.0 | 0.00 | 0.00 | 0.00 | 87 | 1016.0 |
| 20260505101624 | 53 | 119 | 0.0 | 0.0 | 0.00 | 0.00 | 0.00 | 87 | 1015.8 |
| 20260505101119 | 53 | 157 | 1.0 | 2.0 | 0.00 | 0.00 | 0.00 | 87 | 1015.9 |
| 20260505100616 | 53 | 124 | 0.0 | 0.0 | 0.00 | 0.00 | 0.00 | 87 | 1015.9 |
| 20260505100113 | 53 | 130 | 0.0 | 0.0 | 0.00 | 0.00 | 0.00 | 87 | 1015.9 |
| 20260505095609 | 53 | 131 | 0.0 | 0.0 | 0.00 | 0.00 | 0.00 | 86 | 1015.8 |
| 20260505095106 | 53 | 158 | 1.0 | 1.0 | 0.00 | 0.00 | 0.00 | 86 | 1015.8 |
| 20260505094602 | 52 | 123 | 0.0 | 0.0 | 0.00 | 0.00 | 0.00 | 86 | 1015.6 |
| 20260505094058 | 52 | 125 | 0.0 | 0.0 | 0.00 | 0.00 | 0.00 | 85 | 1015.6 |
| 20260505093555 | 52 | 125 | 0.0 | 0.0 | 0.00 | 0.00 | 0.00 | 85 | 1015.8 |
| 20260505093052 | 52 | 128 | 0.0 | 0.0 | 0.00 | 0.00 | 0.00 | 84 | 1015.8 |
| 20260505092549 | 53 | 128 | 0.0 | 0.0 | 0.00 | 0.00 | 0.00 | 84 | 1015.5 |
| 20260505092048 | 53 | 124 | 0.0 | 0.0 | 0.00 | 0.00 | 0.00 | 83 | 1015.6 |
| 20260505091544 | 53 | 125 | 0.0 | 0.0 | 0.00 | 0.00 | 0.00 | 83 | 1015.6 |
| 20260505091043 | 54 | 130 | 0.0 | 0.0 | 0.00 | 0.00 | 0.00 | 82 | 1015.5 |
| 20260505090540 | 54 | 124 | 0.0 | 0.0 | 0.00 | 0.00 | 0.00 | 82 | 1015.5 |
| 20260505090038 | 54 | 124 | 0.0 | 0.0 | 0.00 | 0.00 | 0.00 | 81 | 1015.4 |
| 20260505085536 | 55 | 128 | 0.0 | 0.0 | 0.00 | 0.00 | 0.00 | 81 | 1015.5 |
| 20260505085034 | 55 | 129 | 0.0 | 0.0 | 0.00 | 0.00 | 0.00 | 81 | 1015.4 |
| 20260505084531 | 56 | 142 | 0.0 | 0.0 | 0.00 | 0.00 | 0.00 | 81 | 1015.4 |
| 20260505084029 | 56 | 137 | 1.0 | 1.0 | 0.00 | 0.00 | 0.00 | 80 | 1015.3 |
| 20260505083526 | 56 | 130 | 0.0 | 0.0 | 0.00 | 0.00 | 0.00 | 80 | 1015.3 |
| 20260505083023 | 56 | 132 | 0.0 | 2.0 | 0.00 | 0.00 | 0.00 | 80 | 1015.3 |
| 20260505082518 | 56 | 161 | 1.0 | 1.0 | 0.00 | 0.00 | 0.00 | 80 | 1015.5 |
| 20260505082015 | 56 | 138 | 0.0 | 1.0 | 0.00 | 0.00 | 0.00 | 79 | 1015.2 |
| 20260505081512 | 56 | 124 | 0.0 | 0.0 | 0.00 | 0.00 | 0.00 | 79 | 1015.2 |
| 20260505081009 | 57 | 130 | 1.0 | 1.0 | 0.00 | 0.00 | 0.00 | 79 | 1015.4 |
| 20260505080505 | 57 | 154 | 2.0 | 3.0 | 0.00 | 0.00 | 0.00 | 79 | 1015.1 |
| 20260505080001 | 57 | 134 | 1.0 | 1.0 | 0.00 | 0.00 | 0.00 | 78 | 1015.1 |
| 20260505075458 | 57 | 121 | 0.0 | 1.0 | 0.00 | 0.00 | 0.00 | 78 | 1015.2 |
| 20260505074955 | 57 | 128 | 1.0 | 1.0 | 0.00 | 0.00 | 0.00 | 78 | 1015.0 |
| 20260505074452 | 57 | 119 | 1.0 | 3.0 | 0.00 | 0.00 | 0.00 | 77 | 1015.2 |
| 20260505073949 | 58 | 131 | 0.0 | 2.0 | 0.00 | 0.00 | 0.00 | 77 | 1015.1 |
| 20260505073447 | 58 | 131 | 0.0 | 1.0 | 0.00 | 0.00 | 0.00 | 76 | 1015.1 |
| 20260505072944 | 58 | 134 | 1.0 | 2.0 | 0.00 | 0.00 | 0.00 | 76 | 1015.2 |
| 20260505072440 | 58 | 147 | 0.0 | 2.0 | 0.00 | 0.00 | 0.00 | 76 | 1015.2 |
| 20260505071936 | 59 | 157 | 1.0 | 3.0 | 0.00 | 0.00 | 0.00 | 75 | 1015.1 |
| 20260505071432 | 59 | 166 | 2.0 | 3.0 | 0.00 | 0.00 | 0.00 | 75 | 1015.4 |
| 20260505070931 | 59 | 108 | 0.0 | 2.0 | 0.00 | 0.00 | 0.00 | 75 | 1015.2 |
| 20260505070427 | 59 | 133 | 0.0 | 2.0 | 0.00 | 0.00 | 0.00 | 75 | 1015.0 |
| 20260505065922 | 59 | 129 | 1.0 | 3.0 | 0.00 | 0.00 | 0.00 | 75 | 1015.1 |
| 20260505065419 | 59 | 210 | 2.0 | 3.0 | 0.00 | 0.00 | 0.00 | 75 | 1015.1 |
| 20260505064916 | 59 | 121 | 1.0 | 3.0 | 0.00 | 0.00 | 0.00 | 74 | 1015.3 |
| 20260505064413 | 59 | 162 | 2.0 | 3.0 | 0.00 | 0.00 | 0.00 | 74 | 1015.2 |
| 20260505063912 | 59 | 133 | 1.0 | 3.0 | 0.00 | 0.00 | 0.00 | 74 | 1015.0 |
| 20260505063407 | 59 | 143 | 2.0 | 4.0 | 0.00 | 0.00 | 0.00 | 74 | 1015.1 |
| 20260505062904 | 59 | 149 | 1.0 | 2.0 | 0.00 | 0.00 | 0.00 | 73 | 1015.1 |
| 20260505062401 | 59 | 145 | 1.0 | 3.0 | 0.00 | 0.00 | 0.00 | 73 | 1015.1 |
| 20260505061858 | 59 | 119 | 2.0 | 4.0 | 0.00 | 0.00 | 0.00 | 73 | 1015.1 |
| 20260505061356 | 60 | 130 | 0.0 | 2.0 | 0.00 | 0.00 | 0.00 | 73 | 1015.2 |
| 20260505060854 | 60 | 135 | 2.0 | 3.0 | 0.00 | 0.00 | 0.00 | 72 | 1014.8 |
| 20260505060350 | 60 | 141 | 1.0 | 2.0 | 0.00 | 0.00 | 0.00 | 72 | 1015.3 |
| 20260505055846 | 60 | 153 | 2.0 | 2.0 | 0.00 | 0.00 | 0.00 | 71 | 1015.4 |
| 20260505055342 | 60 | 146 | 0.0 | 2.0 | 0.00 | 0.00 | 0.00 | 71 | 1015.4 |
| 20260505054840 | 60 | 175 | 2.0 | 2.0 | 0.00 | 0.00 | 0.00 | 71 | 1015.2 |
| 20260505054337 | 60 | 121 | 0.0 | 3.0 | 0.00 | 0.00 | 0.00 | 71 | 1015.2 |
| 20260505053835 | 60 | 128 | 0.0 | 2.0 | 0.00 | 0.00 | 0.00 | 70 | 1015.3 |
| 20260505053332 | 61 | 178 | 2.0 | 3.0 | 0.00 | 0.00 | 0.00 | 70 | 1015.5 |
| 20260505052828 | 61 | 118 | 1.0 | 4.0 | 0.00 | 0.00 | 0.00 | 70 | 1015.4 |
| 20260505052325 | 61 | 151 | 2.0 | 2.0 | 0.00 | 0.00 | 0.00 | 69 | 1015.6 |
| 20260505051823 | 61 | 133 | 1.0 | 2.0 | 0.00 | 0.00 | 0.00 | 69 | 1015.3 |
| 20260505051320 | 61 | 130 | 0.0 | 3.0 | 0.00 | 0.00 | 0.00 | 68 | 1015.5 |
| 20260505050818 | 62 | 179 | 2.0 | 6.0 | 0.00 | 0.00 | 0.00 | 68 | 1015.5 |
| 20260505050317 | 62 | 140 | 2.0 | 6.0 | 0.00 | 0.00 | 0.00 | 68 | 1015.6 |
| 20260505041746 | 63 | 135 | 1.0 | 4.0 | 0.00 | 0.00 | 0.00 | 66 | 1015.4 |
| 20260505041243 | 63 | 163 | 3.0 | 6.0 | 0.00 | 0.00 | 0.00 | 66 | 1015.4 |
| 20260505040741 | 63 | 118 | 3.0 | 6.0 | 0.00 | 0.00 | 0.00 | 66 | 1015.4 |
| 20260505040238 | 63 | 169 | 3.0 | 8.0 | 0.00 | 0.00 | 0.00 | 66 | 1015.5 |
| 20260505035735 | 63 | 141 | 4.0 | 8.0 | 0.00 | 0.00 | 0.00 | 66 | 1015.5 |
| 20260505035230 | 64 | 128 | 5.0 | 9.0 | 0.00 | 0.00 | 0.00 | 65 | 1015.6 |
| 20260505034728 | 64 | 166 | 8.0 | 10.0 | 0.00 | 0.00 | 0.00 | 65 | 1015.4 |
| 20260505034224 | 64 | 149 | 1.0 | 8.0 | 0.00 | 0.00 | 0.00 | 65 | 1015.6 |
| 20260505033721 | 64 | 220 | 2.0 | 4.0 | 0.00 | 0.00 | 0.00 | 65 | 1015.5 |
| 20260505033219 | 64 | 191 | 4.0 | 6.0 | 0.00 | 0.00 | 0.00 | 64 | 1015.6 |
| 20260505032717 | 64 | 151 | 3.0 | 8.0 | 0.00 | 0.00 | 0.00 | 64 | 1015.4 |
| 20260505032212 | 64 | 192 | 3.0 | 8.0 | 0.00 | 0.00 | 0.00 | 64 | 1015.3 |
| 20260505031710 | 64 | 133 | 3.0 | 7.0 | 0.00 | 0.00 | 0.00 | 64 | 1015.5 |
| 20260505031206 | 64 | 154 | 2.0 | 6.0 | 0.00 | 0.00 | 0.00 | 64 | 1015.5 |
| 20260505030703 | 64 | 144 | 4.0 | 8.0 | 0.00 | 0.00 | 0.00 | 64 | 1015.4 |
| 20260505030159 | 64 | 153 | 1.0 | 8.0 | 0.00 | 0.00 | 0.00 | 63 | 1015.4 |
| 20260505025655 | 65 | 203 | 3.0 | 6.0 | 0.00 | 0.00 | 0.00 | 63 | 1015.5 |
| 20260505025154 | 65 | 187 | 2.0 | 6.0 | 0.00 | 0.00 | 0.00 | 63 | 1015.4 |
| 20260505024651 | 65 | 137 | 3.0 | 6.0 | 0.00 | 0.00 | 0.00 | 63 | 1015.4 |
| 20260505024148 | 65 | 162 | 3.0 | 6.0 | 0.00 | 0.00 | 0.00 | 63 | 1015.6 |
| 20260505023646 | 65 | 125 | 1.0 | 8.0 | 0.00 | 0.00 | 0.00 | 63 | 1015.5 |
| 20260505023143 | 65 | 197 | 3.0 | 6.0 | 0.00 | 0.00 | 0.00 | 63 | 1015.4 |
| 20260505022640 | 66 | 169 | 1.0 | 3.0 | 0.00 | 0.00 | 0.00 | 62 | 1015.4 |
| 20260505022137 | 66 | 179 | 4.0 | 9.0 | 0.00 | 0.00 | 0.00 | 62 | 1015.3 |
| 20260505021634 | 66 | 156 | 5.0 | 8.0 | 0.00 | 0.00 | 0.00 | 62 | 1015.2 |
| 20260505021130 | 66 | 108 | 2.0 | 4.0 | 0.00 | 0.00 | 0.00 | 61 | 1015.2 |
| 20260505020626 | 67 | 125 | 6.0 | 8.0 | 0.00 | 0.00 | 0.00 | 61 | 1015.1 |
| 20260505020122 | 67 | 139 | 6.0 | 10.0 | 0.00 | 0.00 | 0.00 | 61 | 1015.0 |
| 20260505015619 | 67 | 146 | 4.0 | 9.0 | 0.00 | 0.00 | 0.00 | 61 | 1015.1 |
| 20260505015116 | 67 | 173 | 4.0 | 8.0 | 0.00 | 0.00 | 0.00 | 61 | 1014.9 |
| 20260505014613 | 67 | 189 | 5.0 | 10.0 | 0.00 | 0.00 | 0.00 | 61 | 1015.1 |
| 20260505014110 | 68 | 197 | 4.0 | 8.0 | 0.00 | 0.00 | 0.00 | 60 | 1015.0 |
| 20260505013607 | 68 | 210 | 2.0 | 11.0 | 0.00 | 0.00 | 0.00 | 60 | 1015.0 |
| 20260505013104 | 68 | 168 | 2.0 | 4.0 | 0.00 | 0.00 | 0.00 | 59 | 1014.6 |
| 20260505012602 | 68 | 185 | 8.0 | 10.0 | 0.00 | 0.00 | 0.00 | 59 | 1014.7 |
| 20260505012059 | 69 | 189 | 4.0 | 10.0 | 0.00 | 0.00 | 0.00 | 58 | 1014.5 |
| 20260505011554 | 69 | 154 | 3.0 | 7.0 | 0.00 | 0.00 | 0.00 | 57 | 1014.6 |
| 20260505011052 | 69 | 213 | 6.0 | 8.0 | 0.00 | 0.00 | 0.00 | 56 | 1014.4 |
| 20260505010547 | 69 | 196 | 4.0 | 9.0 | 0.00 | 0.00 | 0.00 | 55 | 1014.5 |
| 20260505010044 | 69 | 151 | 3.0 | 7.0 | 0.00 | 0.00 | 0.00 | 53 | 1014.2 |
| 20260505005540 | 69 | 144 | 2.0 | 4.0 | 0.00 | 0.00 | 0.00 | 50 | 1014.2 |
| 20260505005038 | 70 | 131 | 2.0 | 6.0 | 0.00 | 0.00 | 0.00 | 49 | 1014.0 |
| 20260505004535 | 70 | 165 | 1.0 | 4.0 | 0.00 | 0.00 | 0.00 | 47 | 1013.9 |
| 20260505004032 | 70 | 186 | 2.0 | 6.0 | 0.00 | 0.00 | 0.00 | 46 | 1013.7 |
| 20260505003529 | 70 | 141 | 2.0 | 4.0 | 0.00 | 0.00 | 0.00 | 46 | 1013.7 |
| 20260505003027 | 70 | 134 | 1.0 | 2.0 | 0.00 | 0.00 | 0.00 | 46 | 1013.6 |
| 20260505002526 | 71 | 143 | 1.0 | 3.0 | 0.00 | 0.00 | 0.00 | 45 | 1013.7 |
| 20260505002026 | 71 | 182 | 1.0 | 4.0 | 0.00 | 0.00 | 0.00 | 44 | 1013.6 |
| 20260505001523 | 71 | 129 | 2.0 | 4.0 | 0.00 | 0.00 | 0.00 | 44 | 1013.6 |
| 20260505001020 | 71 | 181 | 2.0 | 3.0 | 0.00 | 0.00 | 0.00 | 43 | 1013.5 |
| 20260505000517 | 72 | 185 | 2.0 | 3.0 | 0.00 | 0.00 | 0.00 | 43 | 1013.6 |
| 20260505000015 | 72 | 180 | 2.0 | 3.0 | 0.00 | 0.00 | 0.00 | 42 | 1013.5 |
| 20260504235511 | 73 | 133 | 2.0 | 2.0 | 0.00 | 0.00 | 0.00 | 41 | 1013.6 |
| 20260504235007 | 73 | 189 | 1.0 | 6.0 | 0.00 | 0.00 | 0.00 | 41 | 1013.5 |
| 20260504234505 | 73 | 126 | 0.0 | 2.0 | 0.00 | 0.00 | 0.00 | 40 | 1013.5 |
| 20260504234002 | 74 | 151 | 3.0 | 4.0 | 0.00 | 0.00 | 0.00 | 40 | 1013.2 |
| 20260504233457 | 74 | 195 | 3.0 | 3.0 | 0.00 | 0.00 | 0.00 | 39 | 1013.2 |
| 20260504232954 | 74 | 120 | 1.0 | 6.0 | 0.00 | 0.00 | 0.00 | 39 | 1013.1 |
| 20260504232451 | 75 | 157 | 3.0 | 3.0 | 0.00 | 0.00 | 0.00 | 39 | 1013.0 |
| 20260504231949 | 75 | 168 | 2.0 | 4.0 | 0.00 | 0.00 | 0.00 | 39 | 1013.1 |
| 20260504231445 | 75 | 144 | 1.0 | 4.0 | 0.00 | 0.00 | 0.00 | 39 | 1013.1 |
| 20260504230941 | 76 | 174 | 3.0 | 8.0 | 0.00 | 0.00 | 0.00 | 38 | 1013.2 |
| 20260504230438 | 76 | 165 | 2.0 | 4.0 | 0.00 | 0.00 | 0.00 | 38 | 1013.1 |
| 20260504225937 | 77 | 142 | 4.0 | 6.0 | 0.00 | 0.00 | 0.00 | 38 | 1012.8 |
| 20260504225433 | 77 | 154 | 2.0 | 6.0 | 0.00 | 0.00 | 0.00 | 38 | 1013.0 |
| 20260504224931 | 77 | 147 | 2.0 | 3.0 | 0.00 | 0.00 | 0.00 | 37 | 1013.2 |
| 20260504224427 | 77 | 148 | 2.0 | 9.0 | 0.00 | 0.00 | 0.00 | 37 | 1013.0 |
| 20260504223924 | 77 | 157 | 4.0 | 8.0 | 0.00 | 0.00 | 0.00 | 37 | 1013.2 |
| 20260504223420 | 77 | 153 | 4.0 | 6.0 | 0.00 | 0.00 | 0.00 | 36 | 1013.0 |
| 20260504222916 | 77 | 145 | 5.0 | 8.0 | 0.00 | 0.00 | 0.00 | 36 | 1013.0 |
| 20260504222414 | 78 | 209 | 2.0 | 4.0 | 0.00 | 0.00 | 0.00 | 36 | 1013.1 |
| 20260504221911 | 78 | 250 | 7.0 | 11.0 | 0.00 | 0.00 | 0.00 | 35 | 1012.9 |
| 20260504221408 | 78 | 169 | 6.0 | 9.0 | 0.00 | 0.00 | 0.00 | 35 | 1012.8 |
| 20260504220905 | 78 | 189 | 1.0 | 8.0 | 0.00 | 0.00 | 0.00 | 35 | 1012.9 |
| 20260504220401 | 79 | 132 | 2.0 | 7.0 | 0.00 | 0.00 | 0.00 | 36 | 1013.1 |
| 20260504215859 | 78 | 216 | 7.0 | 8.0 | 0.00 | 0.00 | 0.00 | 35 | 1013.1 |
| 20260504215355 | 78 | 136 | 6.0 | 9.0 | 0.00 | 0.00 | 0.00 | 35 | 1012.9 |
| 20260504214851 | 79 | 223 | 7.0 | 9.0 | 0.00 | 0.00 | 0.00 | 34 | 1013.2 |
| 20260504214348 | 79 | 128 | 3.0 | 6.0 | 0.00 | 0.00 | 0.00 | 35 | 1013.1 |
| 20260504213845 | 79 | 150 | 4.0 | 10.0 | 0.00 | 0.00 | 0.00 | 34 | 1012.9 |
| 20260504213341 | 79 | 157 | 3.0 | 8.0 | 0.00 | 0.00 | 0.00 | 34 | 1013.0 |
| 20260504212838 | 79 | 225 | 7.0 | 8.0 | 0.00 | 0.00 | 0.00 | 34 | 1013.0 |
| 20260504212334 | 79 | 212 | 6.0 | 10.0 | 0.00 | 0.00 | 0.00 | 34 | 1013.2 |
| 20260504211832 | 79 | 193 | 4.0 | 10.0 | 0.00 | 0.00 | 0.00 | 33 | 1013.2 |
| 20260504211328 | 79 | 205 | 10.0 | 11.0 | 0.00 | 0.00 | 0.00 | 33 | 1013.0 |
| 20260504210826 | 80 | 260 | 8.0 | 9.0 | 0.00 | 0.00 | 0.00 | 34 | 1013.0 |
| 20260504210323 | 80 | 242 | 5.0 | 9.0 | 0.00 | 0.00 | 0.00 | 33 | 1013.0 |
| 20260504205820 | 80 | 219 | 8.0 | 10.0 | 0.00 | 0.00 | 0.00 | 34 | 1013.0 |
| 20260504205317 | 79 | 223 | 2.0 | 7.0 | 0.00 | 0.00 | 0.00 | 33 | 1013.0 |
| 20260504204815 | 80 | 170 | 7.0 | 13.0 | 0.00 | 0.00 | 0.00 | 33 | 1013.1 |
| 20260504204314 | 79 | 180 | 4.0 | 10.0 | 0.00 | 0.00 | 0.00 | 33 | 1013.0 |
| 20260504203813 | 79 | 164 | 2.0 | 7.0 | 0.00 | 0.00 | 0.00 | 33 | 1013.4 |
| 20260504203309 | 79 | 226 | 7.0 | 10.0 | 0.00 | 0.00 | 0.00 | 33 | 1013.4 |
| 20260504202804 | 79 | 213 | 4.0 | 8.0 | 0.00 | 0.00 | 0.00 | 33 | 1013.3 |
| 20260504202304 | 78 | 230 | 8.0 | 11.0 | 0.00 | 0.00 | 0.00 | 33 | 1013.4 |
| 20260504201759 | 79 | 214 | 8.0 | 13.0 | 0.00 | 0.00 | 0.00 | 34 | 1013.6 |
| 20260504201256 | 79 | 167 | 5.0 | 8.0 | 0.00 | 0.00 | 0.00 | 34 | 1013.5 |
| 20260504200754 | 79 | 241 | 8.0 | 13.0 | 0.00 | 0.00 | 0.00 | 34 | 1013.7 |
| 20260504200249 | 79 | 212 | 6.0 | 14.0 | 0.00 | 0.00 | 0.00 | 33 | 1013.5 |
| 20260504195746 | 79 | 198 | 4.0 | 4.0 | 0.00 | 0.00 | 0.00 | 33 | 1013.4 |
| 20260504195242 | 79 | 120 | 7.0 | 9.0 | 0.00 | 0.00 | 0.00 | 34 | 1013.5 |
| 20260504194739 | 79 | 173 | 4.0 | 8.0 | 0.00 | 0.00 | 0.00 | 34 | 1013.6 |
| 20260504194235 | 80 | 241 | 3.0 | 6.0 | 0.00 | 0.00 | 0.00 | 35 | 1013.5 |
| 20260504193732 | 79 | 198 | 5.0 | 7.0 | 0.00 | 0.00 | 0.00 | 35 | 1013.5 |
| 20260504193229 | 79 | 186 | 6.0 | 7.0 | 0.00 | 0.00 | 0.00 | 35 | 1013.8 |
| 20260504192727 | 79 | 218 | 6.0 | 10.0 | 0.00 | 0.00 | 0.00 | 33 | 1013.7 |
| 20260504192225 | 79 | 210 | 4.0 | 8.0 | 0.00 | 0.00 | 0.00 | 33 | 1013.8 |
| 20260504191724 | 79 | 142 | 5.0 | 9.0 | 0.00 | 0.00 | 0.00 | 32 | 1013.8 |
| 20260504191220 | 79 | 218 | 2.0 | 4.0 | 0.00 | 0.00 | 0.00 | 31 | 1014.0 |
| 20260504190715 | 79 | 260 | 4.0 | 9.0 | 0.00 | 0.00 | 0.00 | 32 | 1013.8 |
| 20260504190212 | 79 | 223 | 2.0 | 10.0 | 0.00 | 0.00 | 0.00 | 32 | 1013.7 |
| 20260504185709 | 78 | 216 | 3.0 | 6.0 | 0.00 | 0.00 | 0.00 | 33 | 1014.0 |
| 20260504185205 | 78 | 249 | 10.0 | 11.0 | 0.00 | 0.00 | 0.00 | 33 | 1014.2 |
| 20260504184701 | 78 | 206 | 7.0 | 10.0 | 0.00 | 0.00 | 0.00 | 33 | 1014.2 |
| 20260504184157 | 78 | 235 | 7.0 | 9.0 | 0.00 | 0.00 | 0.00 | 33 | 1014.2 |
| 20260504183654 | 78 | 224 | 4.0 | 8.0 | 0.00 | 0.00 | 0.00 | 34 | 1014.2 |
| 20260504183151 | 78 | 249 | 4.0 | 11.0 | 0.00 | 0.00 | 0.00 | 33 | 1014.1 |
| 20260504182649 | 78 | 208 | 5.0 | 9.0 | 0.00 | 0.00 | 0.00 | 34 | 1014.2 |
| 20260504182146 | 79 | 221 | 5.0 | 7.0 | 0.00 | 0.00 | 0.00 | 35 | 1014.3 |
| 20260504181643 | 78 | 249 | 4.0 | 9.0 | 0.00 | 0.00 | 0.00 | 35 | 1014.3 |
| 20260504181141 | 77 | 253 | 2.0 | 6.0 | 0.00 | 0.00 | 0.00 | 35 | 1014.4 |
| 20260504180640 | 77 | 179 | 2.0 | 4.0 | 0.00 | 0.00 | 0.00 | 38 | 1014.3 |
| 20260504180138 | 78 | 162 | 6.0 | 10.0 | 0.00 | 0.00 | 0.00 | 37 | 1014.5 |
| 20260504175635 | 77 | 179 | 5.0 | 7.0 | 0.00 | 0.00 | 0.00 | 37 | 1014.8 |
| 20260504175131 | 77 | 221 | 5.0 | 8.0 | 0.00 | 0.00 | 0.00 | 37 | 1014.7 |
| 20260504174630 | 76 | 226 | 3.0 | 9.0 | 0.00 | 0.00 | 0.00 | 37 | 1014.8 |
| 20260504174126 | 77 | 306 | 7.0 | 10.0 | 0.00 | 0.00 | 0.00 | 37 | 1014.8 |
| 20260504173623 | 77 | 119 | 6.0 | 9.0 | 0.00 | 0.00 | 0.00 | 37 | 1014.9 |
| 20260504173121 | 77 | 170 | 1.0 | 7.0 | 0.00 | 0.00 | 0.00 | 38 | 1014.9 |
| 20260504172617 | 77 | 319 | 4.0 | 7.0 | 0.00 | 0.00 | 0.00 | 39 | 1014.9 |
| 20260504172114 | 77 | 220 | 3.0 | 6.0 | 0.00 | 0.00 | 0.00 | 39 | 1014.9 |
| 20260504171610 | 76 | 144 | 3.0 | 4.0 | 0.00 | 0.00 | 0.00 | 41 | 1015.0 |